[[{"header":{"parameterUnit":"m.s-1","parameterCategory":2,"la1":30.2991,"la2":30.254,"lo1":-89.0895,"lo2":-89.0444,"dy":0.0017,"dx":0.0017,"nx":28,"ny":28,"refTime":"2024-03-12T03:00:00:Z","depth":"0","parameterNumber":2,"parameterNumberName":"U-component_of_CURRENTS"},"data":[0,0,0,0,0,0,0,0,0,0,0,0,0,0,0,0,0,0,0,0,0,0,0,0,0,0,0,0,0,0,0,0,0,0,0,0,0,0,0,0,0,0,0,0,0,0,0,0,0,0,0,0,0,0,0,0,0,0,0.1404,0.1403,0,0.137,0.1369,0.1368,0.1321,0.1321,0.132,0.132,0.1274,0.1273,0.1273,0,0,0,0,0,0,0,0,0,0,0,0,0,0.1416,0.1416,0.1404,0.1403,0.1403,0.137,0.1369,0.1368,0.1321,0.1321,0.132,0.1319,0.1274,0.1274,0.1273,0,0,0,0,0,0,0,0,0,0,0,0,0,0.1396,0.1416,0.1404,0.1378,0.1376,0.137,0.1369,0.1368,0.1321,0.1321,0.132,0.1319,0.1275,0.1274,0.1273,0.1281,0,0,0.1269,0.1269,0,0,0,0,0,0,0,0,0.1397,0.1395,0.1382,0.138,0.1377,0.1352,0.1357,0.1339,0.1322,0.1339,0.132,0.1319,0.1302,0.1298,0.1289,0.1278,0.1276,0.1269,0.1268,0.1268,0.1268,0,0,0,0,0,0,0,0.1399,0.1397,0.1387,0.1382,0.1379,0.1365,0.1361,0.1353,0.1322,0.1337,0.1334,0.1336,0.13,0.129,0.1288,0.1276,0.1269,0.1268,0.1267,0.1267,0.1347,0.135,0,0,0,0,0,0,0.1411,0.1398,0.1388,0.1386,0.139,0.1366,0.1361,0.1358,0.1322,0.1317,0.1337,0.1334,0.1293,0.1289,0.1286,0.1341,0.1268,0.1267,0.1266,0.1345,0.1348,0.1351,0,0,0,0,0,0,0.1412,0.1411,0.1389,0.1394,0.1391,0.1367,0.1363,0.1358,0.1351,0.1323,0.1317,0.1336,0.1292,0.1288,0.1301,0.1337,0.1266,0.1265,0.1341,0.1346,0.135,0.1421,0,0,0,0,0,0,0.1412,0.1411,0.1413,0.1395,0.1391,0.1392,0.1364,0.1358,0.1355,0.1351,0.1321,0.1315,0.1291,0.1303,0.13,0.1334,0.1264,0.1338,0.1343,0.1348,0.1415,0.1427,0.1438,0,0,0,0,0,0.1412,0.1422,0.1413,0.1412,0.1395,0.1393,0.139,0.1368,0.1356,0.1357,0.135,0.1316,0.1335,0.1304,0.1299,0.1335,0.1335,0.1342,0.1348,0.141,0.1425,0.1437,0,0,0,0,0,0,0.1427,0.1417,0.1408,0.1413,0.1407,0.1386,0.1392,0.1376,0.137,0.1373,0.1339,0.1335,0.1361,0.1347,0.1314,0.138,0.1335,0.1341,0.1384,0.1397,0.1408,0.1419,0.1263,0,0,0,0,0,0.1434,0.1438,0.1426,0.1432,0.1433,0.1414,0.1412,0.14,0.1394,0.1389,0.137,0.1371,0.1385,0.1389,0.1389,0.1418,0.1461,0.1446,0.1457,0.1467,0.1477,0.1582,0.1604,0.1372,0.1372,0.1372,0,0,0.1441,0.1439,0.144,0.1436,0.1431,0.1447,0.141,0.1417,0.1435,0.1388,0.1407,0.14,0.1402,0.1436,0.1449,0.1427,0.1565,0.1475,0.1482,0.1488,0.1591,0.1614,0.1634,0.1376,0.1375,0.1375,0,0,0.1469,0.1459,0.1476,0.1477,0.1481,0.1476,0.1482,0.147,0.1469,0.1487,0.1472,0.1493,0.1495,0.1512,0.1521,0.1599,0.1617,0.1604,0.1668,0.177,0.179,0.1808,0.1927,0.1955,0.1613,0.1614,0.1614,0,0.1478,0.1496,0.1481,0.1503,0.1514,0.1495,0.1522,0.1525,0.1519,0.1536,0.1507,0.1553,0.1537,0.1608,0.1631,0.1623,0.1693,0.1609,0.1785,0.1803,0.182,0.1938,0.1967,0.1618,0.1617,0.1617,0.1617,0,0.152,0.1536,0.1551,0.1573,0.1583,0.1603,0.161,0.1624,0.1621,0.1626,0.1678,0.1669,0.1706,0.1705,0.1684,0.1801,0.1819,0.1782,0.1746,0.1847,0.1966,0.1995,0.1624,0.1622,0.1621,0.162,0,0,0.1533,0.1571,0.1576,0.1599,0.1622,0.1635,0.1681,0.1718,0.176,0.1762,0.1828,0.1843,0.1845,0.1858,0.1848,0.1914,0.2088,0.1902,0.1906,0.2015,0.2353,0.2334,0.2365,0.2089,0.2094,0.2098,0.24,0,0.157,0.1624,0.1634,0.169,0.1718,0.1727,0.177,0.1805,0.183,0.1889,0.1909,0.1964,0.1907,0.1938,0.2002,0.2063,0.2165,0.2012,0.2243,0.2251,0.2216,0.2397,0.2343,0.2604,0.2428,0.2433,0.2437,0,0.1605,0.1639,0.1697,0.1751,0.1765,0.1797,0.1869,0.1908,0.1988,0.2015,0.2083,0.2101,0.2211,0.2136,0.2335,0.2248,0.232,0.2356,0.2368,0.2342,0.2287,0.2469,0.2664,0.2558,0.2482,0.2479,0.2475,0,0.1617,0.168,0.1729,0.1746,0.1807,0.1841,0.1877,0.1946,0.1996,0.2115,0.2177,0.229,0.2371,0.2474,0.2545,0.2475,0.276,0.2678,0.2741,0.2741,0.2735,0.2725,0.2843,0.2846,0.2846,0.2845,0.2844,0,0.1641,0.1678,0.1739,0.1763,0.1819,0.1865,0.194,0.1986,0.2092,0.2166,0.2253,0.2348,0.246,0.2607,0.2654,0.2817,0.2876,0.2809,0.2835,0.2761,0.2751,0.2683,0.26,0.2856,0.2854,0.2852,0.285,0,0.1628,0.1674,0.1727,0.1801,0.1819,0.1859,0.1947,0.2007,0.2121,0.2232,0.2285,0.2463,0.2657,0.2769,0.2962,0.2976,0.3033,0.314,0.3053,0.306,0.2966,0.289,0.2952,0.2858,0.3288,0.3289,0.329,0,0.1619,0.1649,0.1728,0.1748,0.1775,0.1842,0.1881,0.1995,0.2057,0.2281,0.2333,0.2578,0.2701,0.3016,0.3112,0.3279,0.3121,0.3317,0.3145,0.301,0.2946,0.2773,0.2674,0.3198,0.3199,0.3199,0.3199,0,0.1587,0.162,0.1657,0.1703,0.1744,0.1794,0.1862,0.1919,0.2064,0.2187,0.2361,0.2498,0.2811,0.2975,0.3208,0.3279,0.3144,0.3326,0.3227,0.2937,0.2723,0.2626,0.2953,0.3203,0.3203,0.3202,0.3202,0.3202,0.1541,0.1553,0.1601,0.1639,0.1683,0.1718,0.1733,0.1825,0.1927,0.2088,0.2291,0.249,0.2814,0.3126,0.3178,0.3249,0.3149,0.3188,0.3136,0.2995,0.2801,0.3136,0.3358,0.3359,0.3359,0.336,0.336,0,0.1466,0.1493,0.1526,0.1561,0.1574,0.1625,0.1691,0.1706,0.1774,0.1997,0.2158,0.2531,0.2742,0.2964,0.3166,0.3094,0.292,0.301,0.2758,0.2687,0.3065,0.2952,0.3044,0.3044,0.3044,0.3044,0.3044,0.3045,0.1419,0.1424,0.1452,0.1439,0.1459,0.1444,0.1459,0.1503,0.1633,0.1852,0.2076,0.2322,0.269,0.2958,0.2985,0.2924,0.2654,0.2573,0.2485,0.2744,0.2754,0.2763,0.2638,0.2663,0.2662,0.2022,0.2017,0.2013]},{"header":{"parameterUnit":"m.s-1","parameterCategory":2,"la1":30.2991,"la2":30.254,"lo1":-89.0895,"lo2":-89.0444,"dy":0.0017,"dx":0.0017,"nx":28,"ny":28,"refTime":"2024-03-12T03:00:00:Z","depth":"0","parameterNumber":3,"parameterNumberName":"V-component_of_CURRENTS"},"data":[0,0,0,0,0,0,0,0,0,0,0,0,0,0,0,0,0,0,0,0,0,0,0,0,0,0,0,0,0,0,0,0,0,0,0,0,0,0,0,0,0,0,0,0,0,0,0,0,0,0,0,0,0,0,0,0,0,0,-0.0325,-0.0325,0,-0.0304,-0.0304,-0.0303,-0.0276,-0.0276,-0.0276,-0.0275,-0.0236,-0.0235,-0.0234,0,0,0,0,0,0,0,0,0,0,0,0,0,-0.0312,-0.0312,-0.0325,-0.0325,-0.0325,-0.0304,-0.0304,-0.0303,-0.0276,-0.0276,-0.0276,-0.0275,-0.0236,-0.0235,-0.0234,0,0,0,0,0,0,0,0,0,0,0,0,0,-0.0304,-0.0312,-0.0325,-0.0311,-0.0309,-0.0304,-0.0304,-0.0303,-0.0276,-0.0276,-0.0276,-0.0275,-0.0237,-0.0236,-0.0234,-0.0233,0,0,-0.023,-0.023,0,0,0,0,0,0,0,0,-0.0305,-0.0305,-0.0313,-0.0312,-0.031,-0.0295,-0.0285,-0.0279,-0.0276,-0.0286,-0.0275,-0.0275,-0.0256,-0.0253,-0.0246,-0.0231,-0.0229,-0.023,-0.0229,-0.0229,-0.0229,0,0,0,0,0,0,0,-0.0305,-0.0305,-0.0314,-0.0313,-0.0311,-0.0296,-0.0294,-0.0283,-0.0271,-0.0285,-0.0284,-0.0286,-0.0255,-0.0248,-0.0245,-0.0229,-0.023,-0.0229,-0.0228,-0.0228,-0.0217,-0.0217,0,0,0,0,0,0,-0.0315,-0.0306,-0.0315,-0.0314,-0.031,-0.0296,-0.0295,-0.0298,-0.0271,-0.0268,-0.0286,-0.0285,-0.025,-0.0247,-0.0244,-0.0237,-0.0229,-0.0228,-0.0227,-0.0216,-0.0217,-0.0217,0,0,0,0,0,0,-0.0315,-0.0316,-0.0315,-0.0311,-0.031,-0.0298,-0.0301,-0.0298,-0.0291,-0.0272,-0.0268,-0.0283,-0.025,-0.0246,-0.0233,-0.0235,-0.0227,-0.0226,-0.0216,-0.0216,-0.0217,-0.0225,0,0,0,0,0,0,-0.0315,-0.0316,-0.0318,-0.0312,-0.0311,-0.0308,-0.0301,-0.0298,-0.0294,-0.0291,-0.0268,-0.0264,-0.0249,-0.0235,-0.0231,-0.0233,-0.0225,-0.0215,-0.0216,-0.0217,-0.0224,-0.0225,-0.0227,0,0,0,0,0,-0.0314,-0.0311,-0.0318,-0.0319,-0.0315,-0.0309,-0.0306,-0.0294,-0.0294,-0.0287,-0.0275,-0.0265,-0.0238,-0.0234,-0.023,-0.0231,-0.0215,-0.0216,-0.0217,-0.0223,-0.0225,-0.0227,0,0,0,0,0,0,-0.0298,-0.0309,-0.0316,-0.0314,-0.0314,-0.0305,-0.0297,-0.0297,-0.0283,-0.0281,-0.0265,-0.026,-0.0252,-0.0244,-0.0239,-0.0233,-0.0227,-0.0228,-0.0233,-0.0235,-0.0237,-0.0218,-0.0224,0,0,0,0,0,-0.03,-0.0305,-0.0311,-0.031,-0.0311,-0.0308,-0.0305,-0.0301,-0.0291,-0.0285,-0.0273,-0.0263,-0.0254,-0.0246,-0.0236,-0.0229,-0.0196,-0.023,-0.0232,-0.0233,-0.0217,-0.0178,-0.0174,-0.0221,-0.0221,-0.0221,0,0,-0.0294,-0.0301,-0.0303,-0.0308,-0.0306,-0.0299,-0.0304,-0.0299,-0.029,-0.0283,-0.0266,-0.0267,-0.0255,-0.0246,-0.0242,-0.0237,-0.0203,-0.0235,-0.0236,-0.0218,-0.0178,-0.0174,-0.0169,-0.0221,-0.0221,-0.0221,0,0,-0.0275,-0.0291,-0.0285,-0.0287,-0.0291,-0.0292,-0.0294,-0.0292,-0.0287,-0.028,-0.0275,-0.0277,-0.0262,-0.0253,-0.0247,-0.0253,-0.0215,-0.0256,-0.0244,-0.0207,-0.0202,-0.0197,-0.0146,-0.0136,-0.0255,-0.0255,-0.0255,0,-0.0264,-0.026,-0.028,-0.0272,-0.0266,-0.029,-0.0273,-0.0276,-0.027,-0.026,-0.0275,-0.0256,-0.0263,-0.0238,-0.025,-0.0255,-0.0217,-0.0236,-0.0206,-0.0201,-0.0196,-0.0144,-0.0134,-0.0255,-0.0255,-0.0255,-0.0255,0,-0.0238,-0.0235,-0.023,-0.0231,-0.0231,-0.0222,-0.0234,-0.0234,-0.0244,-0.0243,-0.0232,-0.0244,-0.022,-0.0245,-0.0251,-0.0224,-0.0202,-0.0213,-0.0196,-0.0191,-0.0138,-0.0127,-0.0256,-0.0256,-0.0256,-0.0256,0,0,-0.0202,-0.0209,-0.0205,-0.019,-0.0206,-0.0194,-0.0195,-0.0186,-0.0152,-0.0189,-0.0133,-0.0184,-0.0186,-0.0179,-0.0193,-0.0188,-0.0143,-0.0187,-0.0185,-0.0126,-0.0036,-0.0061,-0.0051,-0.0141,-0.0139,-0.0138,-0.001,0,-0.0167,-0.0138,-0.0156,-0.0123,-0.0105,-0.0129,-0.011,-0.0111,-0.0109,-0.0064,-0.0104,-0.0056,-0.0159,-0.0122,-0.0147,-0.0112,-0.0114,-0.0175,-0.0057,-0.0053,-0.0069,-0.004,-0.0091,0.0014,0.0001,0.0003,0.0004,0,-0.0125,-0.011,-0.0073,-0.0046,-0.0038,-0.002,0.0021,0.0037,0.0064,0.0076,0.0077,0.0075,0.0086,0.0006,0.002,-0.0004,-0.0029,-0.0037,-0.0032,-0.0041,-0.0058,0.0005,0.0035,-0.0169,0.0021,0.002,0.0019,0,-0.0066,-0.0045,-0.0009,-0.0003,0.0016,0.0042,0.0063,0.0088,0.0155,0.0199,0.0283,0.0243,0.032,0.0245,0.0191,0.0135,0.0226,0.0156,0.0099,0.0098,0.0085,0.0079,-0.0059,0.0151,0.0151,0.015,0.015,0,-0.0011,0.0023,0.003,0.0055,0.0125,0.0119,0.0226,0.0228,0.0324,0.0458,0.0385,0.0511,0.039,0.0415,0.0289,0.0253,0.0306,0.0122,0.0132,0.0078,0.0071,-0.0083,-0.0182,0.0155,0.0154,0.0153,0.0152,0,0.0061,0.0053,0.0107,0.0139,0.0157,0.022,0.0347,0.0454,0.0508,0.0697,0.0742,0.0784,0.0802,0.0658,0.0605,0.0446,0.0268,0.033,0.0278,0.0276,-0.0019,-0.0115,-0.0162,-0.0231,0.029,0.029,0.0291,0,0.0106,0.0138,0.0183,0.0238,0.0263,0.0366,0.0468,0.0538,0.0681,0.0882,0.1011,0.1078,0.1138,0.1022,0.0748,0.0538,0.0328,0.0349,0.0188,-0.0028,-0.0126,-0.019,-0.025,0.018,0.0179,0.0178,0.0178,0,0.0213,0.0222,0.0269,0.0381,0.0483,0.0614,0.0768,0.0898,0.1041,0.1189,0.1408,0.1471,0.1346,0.1128,0.0814,0.062,0.019,0.0328,0.0123,-0.0208,-0.03,-0.0363,0.0096,0.0172,0.0172,0.0173,0.0173,0.0173,0.0313,0.0377,0.0455,0.0565,0.068,0.0874,0.1004,0.1183,0.14,0.1617,0.1674,0.1755,0.1411,0.0966,0.0706,0.0137,0.0171,-0.0077,-0.0161,-0.0194,-0.0324,0.0123,0.0184,0.0184,0.0185,0.0185,0.0186,0,0.0489,0.0556,0.0656,0.0804,0.0964,0.099,0.1224,0.1354,0.1593,0.1753,0.1886,0.1731,0.1281,0.0795,0.0081,-0.0292,-0.0435,-0.0509,-0.0647,-0.0675,-0.0262,-0.0339,-0.0412,-0.0412,-0.0412,-0.0412,-0.0411,-0.0411,0.0603,0.0745,0.0788,0.1053,0.1151,0.1362,0.1486,0.1627,0.1742,0.1888,0.19,0.1901,0.1525,0.0286,-0.0601,-0.0806,-0.1043,-0.1082,-0.1163,-0.0959,-0.0927,-0.0897,-0.0997,-0.1207,-0.1208,-0.1566,-0.157,-0.1574]}],[{"header":{"parameterUnit":"m.s-1","parameterCategory":2,"la1":30.2991,"la2":30.254,"lo1":-89.0895,"lo2":-89.0444,"dy":0.0017,"dx":0.0017,"nx":28,"ny":28,"refTime":"2024-03-12T03:00:00:Z","depth":"2","parameterNumber":2,"parameterNumberName":"U-component_of_CURRENTS"},"data":[0,0,0,0,0,0,0,0,0,0,0,0,0,0,0,0,0,0,0,0,0,0,0,0,0,0,0,0,0,0,0,0,0,0,0,0,0,0,0,0,0,0,0,0,0,0,0,0,0,0,0,0,0,0,0,0,0,0,0.1635,0.1635,0,0.1646,0.1646,0.1645,0.1619,0.1619,0.1618,0.1618,0.1632,0.1632,0.1633,0,0,0,0,0,0,0,0,0,0,0,0,0,0.1594,0.1594,0.1635,0.1635,0.1636,0.1646,0.1646,0.1645,0.1619,0.1619,0.1618,0.1618,0.1631,0.1632,0.1633,0,0,0,0,0,0,0,0,0,0,0,0,0,0.1605,0.1594,0.1635,0.1627,0.1626,0.1646,0.1646,0.1645,0.1619,0.1619,0.1618,0.1617,0.1631,0.1632,0.1633,0.1656,0,0,0.1637,0.1638,0,0,0,0,0,0,0,0,0.1605,0.1606,0.1627,0.1627,0.1627,0.1634,0.1636,0.165,0.162,0.1618,0.1618,0.1617,0.1636,0.1636,0.1635,0.1657,0.1657,0.1637,0.1638,0.1639,0.1639,0,0,0,0,0,0,0,0.1604,0.1606,0.1635,0.1628,0.1628,0.1624,0.1624,0.1639,0.1628,0.1618,0.1617,0.1625,0.1635,0.1634,0.1635,0.1658,0.1637,0.1638,0.1639,0.164,0.1699,0.1699,0,0,0,0,0,0,0.1611,0.1605,0.1635,0.1636,0.1618,0.1625,0.1625,0.1629,0.1628,0.1628,0.1625,0.1623,0.1632,0.1634,0.1635,0.1679,0.1639,0.164,0.1641,0.1698,0.1699,0.17,0,0,0,0,0,0,0.161,0.1613,0.1635,0.1624,0.1627,0.1627,0.1631,0.163,0.1635,0.1634,0.1633,0.1633,0.1631,0.1634,0.164,0.1678,0.164,0.1642,0.1697,0.1698,0.1699,0.1755,0,0,0,0,0,0,0.1608,0.1613,0.1618,0.1624,0.1628,0.166,0.1632,0.1631,0.1642,0.1639,0.164,0.164,0.1631,0.1639,0.1642,0.1679,0.1643,0.1696,0.1697,0.1699,0.1752,0.1758,0.1763,0,0,0,0,0,0.1607,0.162,0.1618,0.1622,0.1635,0.1661,0.1663,0.1657,0.1643,0.1656,0.1639,0.164,0.1651,0.164,0.1643,0.1683,0.1695,0.1697,0.1699,0.175,0.1757,0.1763,0,0,0,0,0,0,0.1603,0.1619,0.1617,0.1633,0.1652,0.1658,0.1668,0.1667,0.1664,0.1655,0.1645,0.1645,0.1666,0.1663,0.1651,0.1702,0.1676,0.1679,0.1714,0.1721,0.1726,0.1752,0.1644,0,0,0,0,0,0.1606,0.1621,0.1638,0.1653,0.1661,0.1666,0.1675,0.1675,0.1675,0.1673,0.167,0.1667,0.1677,0.1688,0.1689,0.172,0.1767,0.1748,0.1754,0.1759,0.1781,0.188,0.1898,0.1706,0.1706,0.1706,0,0,0.1609,0.1621,0.1629,0.1654,0.1661,0.1685,0.1669,0.1688,0.1708,0.1677,0.1691,0.1684,0.1686,0.1711,0.1723,0.1715,0.1837,0.1761,0.1765,0.1786,0.1884,0.1903,0.192,0.1707,0.1707,0.1706,0,0,0.1631,0.1633,0.1655,0.1672,0.1694,0.1702,0.1713,0.1723,0.1727,0.1742,0.1724,0.174,0.1748,0.1764,0.1772,0.1814,0.1857,0.1813,0.1874,0.1969,0.1987,0.2003,0.2092,0.2115,0.1824,0.1824,0.1824,0,0.1634,0.1661,0.1668,0.1694,0.1712,0.1714,0.1744,0.1753,0.1764,0.1784,0.1753,0.1792,0.178,0.1843,0.1843,0.1831,0.189,0.1849,0.198,0.1997,0.2012,0.21,0.2125,0.1827,0.1827,0.1827,0.1826,0,0.1673,0.1693,0.1708,0.174,0.1764,0.1788,0.1808,0.1828,0.1828,0.1843,0.1892,0.1879,0.1919,0.1909,0.1883,0.1988,0.1996,0.1972,0.197,0.2036,0.2123,0.2148,0.1831,0.183,0.1829,0.1829,0,0,0.1679,0.1727,0.1731,0.1755,0.1788,0.1814,0.1855,0.1907,0.1956,0.1958,0.2037,0.2028,0.2041,0.2051,0.204,0.2099,0.2238,0.2083,0.2087,0.2185,0.2465,0.2354,0.2371,0.2246,0.2251,0.2255,0.2485,0,0.1707,0.1759,0.1782,0.1836,0.1862,0.1887,0.1937,0.1982,0.2015,0.2089,0.2106,0.2165,0.2094,0.2129,0.2181,0.2231,0.2307,0.2179,0.2376,0.2382,0.2286,0.2397,0.217,0.2346,0.2509,0.2514,0.2517,0,0.1734,0.1767,0.1823,0.1892,0.191,0.1951,0.2041,0.2087,0.2184,0.2219,0.2289,0.2312,0.2409,0.2331,0.2487,0.2415,0.2452,0.2474,0.2484,0.2381,0.2318,0.2304,0.2386,0.256,0.2556,0.2553,0.255,0,0.1735,0.1795,0.1843,0.1861,0.1941,0.1987,0.2039,0.2129,0.2198,0.2324,0.2399,0.2501,0.2581,0.265,0.2665,0.2616,0.2827,0.2774,0.2716,0.2709,0.2554,0.2525,0.2903,0.2903,0.2903,0.2902,0.2901,0,0.1755,0.1787,0.1848,0.1878,0.1947,0.2006,0.2111,0.2171,0.2309,0.2413,0.2477,0.2583,0.2665,0.2766,0.2769,0.2825,0.2929,0.2766,0.2774,0.2563,0.2533,0.2733,0.271,0.2911,0.2909,0.2907,0.2905,0,0.1744,0.1783,0.1835,0.1922,0.195,0.2001,0.214,0.2227,0.2348,0.2498,0.2555,0.2713,0.2843,0.289,0.3021,0.2962,0.3017,0.2999,0.2734,0.2704,0.282,0.2798,0.3017,0.3016,0.3014,0.3013,0.3012,0,0.1744,0.1769,0.1849,0.1883,0.1924,0.2011,0.2087,0.2226,0.2327,0.2558,0.2639,0.2819,0.2869,0.3013,0.2987,0.3014,0.3041,0.2808,0.2651,0.2853,0.284,0.2819,0.2799,0.249,0.2484,0.248,0.2477,0,0.1739,0.1765,0.1814,0.1882,0.1953,0.2032,0.2151,0.2235,0.2416,0.2515,0.2671,0.273,0.2857,0.2772,0.279,0.2766,0.278,0.272,0.3065,0.2458,0.2364,0.2346,0.2343,0.2439,0.2442,0.2445,0.2447,0.2449,0.173,0.1752,0.1824,0.1885,0.1957,0.2045,0.2085,0.2208,0.2321,0.2405,0.2542,0.2511,0.2563,0.2455,0.242,0.2422,0.2594,0.2472,0.2483,0.2499,0.2359,0.2263,0.2295,0.2298,0.23,0.2303,0.2305,0,0.1721,0.1763,0.1825,0.1908,0.1961,0.202,0.212,0.2098,0.2147,0.2224,0.2232,0.2028,0.1969,0.2053,0.1989,0.1998,0.196,0.1934,0.1863,0.1903,0.1939,0.1766,0.1548,0.1546,0.1543,0.1541,0,0,0.1717,0.1772,0.181,0.189,0.1944,0.1947,0.1967,0.1907,0.1903,0.1809,0.1762,0.1797,0.1945,0.1681,0.1688,0.1615,0.1739,0.1558,0.2169,0.2125,0.2156,0.226,0.2041,0,0,0,0,0]},{"header":{"parameterUnit":"m.s-1","parameterCategory":2,"la1":30.2991,"la2":30.254,"lo1":-89.0895,"lo2":-89.0444,"dy":0.0017,"dx":0.0017,"nx":28,"ny":28,"refTime":"2024-03-12T03:00:00:Z","depth":"2","parameterNumber":3,"parameterNumberName":"V-component_of_CURRENTS"},"data":[0,0,0,0,0,0,0,0,0,0,0,0,0,0,0,0,0,0,0,0,0,0,0,0,0,0,0,0,0,0,0,0,0,0,0,0,0,0,0,0,0,0,0,0,0,0,0,0,0,0,0,0,0,0,0,0,0,0,-0.0364,-0.0364,0,-0.0365,-0.0364,-0.0364,-0.0354,-0.0354,-0.0354,-0.0353,-0.0344,-0.0344,-0.0344,0,0,0,0,0,0,0,0,0,0,0,0,0,-0.0318,-0.0319,-0.0364,-0.0364,-0.0364,-0.0365,-0.0364,-0.0364,-0.0354,-0.0354,-0.0354,-0.0353,-0.0344,-0.0344,-0.0344,0,0,0,0,0,0,0,0,0,0,0,0,0,-0.0328,-0.0319,-0.0364,-0.036,-0.036,-0.0365,-0.0364,-0.0364,-0.0354,-0.0354,-0.0353,-0.0353,-0.0344,-0.0344,-0.0344,-0.0346,0,0,-0.0343,-0.0343,0,0,0,0,0,0,0,0,-0.0328,-0.033,-0.0361,-0.0361,-0.0361,-0.0361,-0.0345,-0.0358,-0.0354,-0.0354,-0.0353,-0.0353,-0.035,-0.0349,-0.0347,-0.0346,-0.0345,-0.0343,-0.0343,-0.0343,-0.0343,0,0,0,0,0,0,0,-0.0327,-0.033,-0.0362,-0.0361,-0.0361,-0.0347,-0.0348,-0.0347,-0.0352,-0.0354,-0.0354,-0.0357,-0.0349,-0.0347,-0.0347,-0.0345,-0.0343,-0.0343,-0.0343,-0.0343,-0.032,-0.0319,0,0,0,0,0,0,-0.0333,-0.0329,-0.0362,-0.0363,-0.0345,-0.0348,-0.0349,-0.0359,-0.0352,-0.0351,-0.0357,-0.0357,-0.0348,-0.0347,-0.0347,-0.0335,-0.0343,-0.0343,-0.0342,-0.032,-0.032,-0.0319,0,0,0,0,0,0,-0.0332,-0.0336,-0.0362,-0.0347,-0.0349,-0.0349,-0.036,-0.0359,-0.0358,-0.0354,-0.0353,-0.0357,-0.0348,-0.0347,-0.0335,-0.0335,-0.0342,-0.0342,-0.0321,-0.032,-0.0319,-0.0321,0,0,0,0,0,0,-0.0331,-0.0336,-0.0341,-0.0348,-0.0351,-0.0363,-0.036,-0.036,-0.0361,-0.036,-0.0354,-0.0353,-0.0348,-0.0335,-0.0334,-0.0335,-0.0342,-0.0321,-0.032,-0.032,-0.0322,-0.0321,-0.032,0,0,0,0,0,-0.0329,-0.0331,-0.0341,-0.0345,-0.0359,-0.0363,-0.0362,-0.036,-0.0362,-0.0359,-0.0349,-0.0353,-0.0329,-0.0334,-0.0334,-0.0334,-0.0322,-0.0321,-0.032,-0.0322,-0.0321,-0.032,0,0,0,0,0,0,-0.0305,-0.0331,-0.0342,-0.035,-0.0358,-0.0361,-0.0356,-0.0362,-0.0353,-0.0349,-0.0347,-0.0344,-0.0335,-0.0332,-0.0338,-0.0324,-0.0327,-0.0325,-0.0329,-0.0327,-0.0326,-0.0317,-0.0342,0,0,0,0,0,-0.0307,-0.032,-0.0338,-0.0344,-0.0348,-0.0355,-0.0356,-0.0358,-0.0354,-0.0351,-0.0348,-0.034,-0.0331,-0.0326,-0.0319,-0.0312,-0.0322,-0.0311,-0.031,-0.0309,-0.0301,-0.0312,-0.0312,-0.0315,-0.0315,-0.0315,0,0,-0.03,-0.0315,-0.0322,-0.0341,-0.0344,-0.034,-0.0354,-0.0354,-0.0347,-0.0351,-0.0336,-0.0338,-0.0327,-0.0316,-0.0312,-0.0314,-0.0317,-0.0308,-0.0308,-0.0299,-0.0311,-0.0311,-0.0311,-0.0315,-0.0315,-0.0315,0,0,-0.0282,-0.0305,-0.0305,-0.031,-0.0321,-0.0328,-0.0331,-0.0339,-0.0337,-0.0331,-0.0328,-0.0329,-0.0318,-0.0311,-0.0306,-0.0295,-0.0312,-0.0294,-0.0283,-0.0294,-0.0294,-0.0294,-0.0326,-0.0328,-0.0293,-0.0293,-0.0293,0,-0.0269,-0.0273,-0.0303,-0.0297,-0.0292,-0.0323,-0.0308,-0.0314,-0.0316,-0.0309,-0.0324,-0.0309,-0.0315,-0.0293,-0.0292,-0.0294,-0.0307,-0.0291,-0.0294,-0.0294,-0.0294,-0.0326,-0.0329,-0.0293,-0.0293,-0.0293,-0.0293,0,-0.0246,-0.0246,-0.0242,-0.025,-0.0253,-0.0245,-0.0261,-0.0265,-0.0277,-0.0281,-0.0274,-0.0285,-0.0271,-0.0284,-0.0287,-0.0284,-0.0297,-0.0295,-0.0301,-0.0294,-0.0328,-0.0332,-0.0293,-0.0293,-0.0293,-0.0293,0,0,-0.0218,-0.0225,-0.0221,-0.0209,-0.0224,-0.0218,-0.0217,-0.0215,-0.0194,-0.0226,-0.02,-0.0222,-0.0234,-0.0228,-0.0241,-0.0264,-0.0296,-0.028,-0.0281,-0.0317,-0.0336,-0.0357,-0.0363,-0.0295,-0.0295,-0.0295,-0.0367,0,-0.0184,-0.0158,-0.0175,-0.0143,-0.0127,-0.0152,-0.0138,-0.0144,-0.0152,-0.0137,-0.0173,-0.015,-0.0209,-0.0194,-0.0233,-0.0262,-0.0301,-0.0277,-0.033,-0.0332,-0.0357,-0.0366,-0.032,-0.038,-0.037,-0.0371,-0.0371,0,-0.0148,-0.0135,-0.0099,-0.0077,-0.0071,-0.0057,-0.0035,-0.0025,-0.0027,-0.0028,-0.0041,-0.006,-0.0091,-0.0137,-0.0224,-0.0204,-0.0272,-0.0318,-0.0322,-0.0339,-0.0358,-0.038,-0.0387,-0.0377,-0.0376,-0.0376,-0.0375,0,-0.01,-0.0077,-0.0043,-0.0036,-0.0023,-0.0004,0.0008,0.0014,0.0049,0.0055,0.008,0.0025,0.0028,-0.0073,-0.0204,-0.0198,-0.0314,-0.0309,-0.0402,-0.0406,-0.0374,-0.0374,-0.0378,-0.0378,-0.0378,-0.0378,-0.0378,0,-0.0053,-0.0022,-0.0013,0.001,0.0063,0.0056,0.0122,0.0122,0.016,0.0207,0.0151,0.0158,0.0047,-0.0043,-0.0176,-0.0314,-0.0298,-0.0403,-0.0421,-0.0376,-0.0375,-0.0369,-0.0366,-0.0381,-0.038,-0.038,-0.0379,0,-0.0,-0.0,0.0046,0.0073,0.0087,0.0132,0.0202,0.0257,0.0274,0.0334,0.0345,0.0283,0.0171,0.0019,-0.0137,-0.0253,-0.0396,-0.0456,-0.0411,-0.0422,-0.0484,-0.0481,-0.053,-0.0531,-0.0532,-0.0533,-0.0534,0,0.003,0.0055,0.0101,0.0136,0.0154,0.0221,0.0275,0.0313,0.037,0.0387,0.0416,0.0343,0.0273,0.0021,-0.0174,-0.0387,-0.0429,-0.0491,-0.0466,-0.0485,-0.0498,-0.0493,-0.0489,-0.0436,-0.0435,-0.0435,-0.0435,0,0.0091,0.0104,0.0145,0.0216,0.0275,0.035,0.0423,0.0461,0.05,0.0519,0.0495,0.0443,0.0262,0.0069,-0.0192,-0.0343,-0.0447,-0.0494,-0.0519,-0.0403,-0.0401,-0.0412,-0.041,-0.0434,-0.0434,-0.0435,-0.0435,-0.0435,0.0145,0.0189,0.024,0.0297,0.0381,0.045,0.0463,0.0535,0.0573,0.0592,0.0548,0.0502,0.0333,0.0031,-0.0213,-0.0436,-0.0432,-0.0505,-0.0502,-0.0501,-0.0476,-0.0475,-0.052,-0.052,-0.0521,-0.0521,-0.0521,0,0.0194,0.0247,0.0315,0.0371,0.0427,0.0487,0.0544,0.0556,0.0546,0.0637,0.0622,0.0475,0.0286,0.0084,-0.0222,-0.0431,-0.0434,-0.0504,-0.045,-0.0449,-0.0449,-0.042,-0.045,-0.045,-0.0451,-0.0451,0,0,0.0228,0.0282,0.0298,0.0373,0.0428,0.049,0.0493,0.0542,0.0604,0.0631,0.0652,0.0666,0.0408,0.0203,-0.0078,-0.0254,-0.0307,-0.0297,-0.0332,-0.0235,-0.0232,-0.043,-0.0383,0,0,0,0,0]}],[{"header":{"parameterUnit":"m.s-1","parameterCategory":2,"la1":30.2991,"la2":30.254,"lo1":-89.0895,"lo2":-89.0444,"dy":0.0017,"dx":0.0017,"nx":28,"ny":28,"refTime":"2024-03-12T03:00:00:Z","depth":"4","parameterNumber":2,"parameterNumberName":"U-component_of_CURRENTS"},"data":[0,0,0,0,0,0,0,0,0,0,0,0,0,0,0,0,0,0,0,0,0,0,0,0,0,0,0,0,0,0,0,0,0,0,0,0,0,0,0,0,0,0,0,0,0,0,0,0,0,0,0,0,0,0,0,0,0,0,0.0966,0.0967,0,0.0998,0.0998,0.0998,0.1039,0.1039,0.104,0.1041,0.1058,0.1058,0.1058,0,0,0,0,0,0,0,0,0,0,0,0,0,0.0935,0.0936,0.0966,0.0967,0.0967,0.0998,0.0998,0.0998,0.1039,0.1039,0.104,0.1041,0.1058,0.1058,0.1058,0,0,0,0,0,0,0,0,0,0,0,0,0,0.0956,0.0936,0.0966,0.0991,0.0993,0.0997,0.0998,0.0999,0.1038,0.1039,0.104,0.1041,0.1058,0.1058,0.1057,0.1037,0,0,0.1057,0.1057,0,0,0,0,0,0,0,0,0.0955,0.0957,0.0987,0.0989,0.0992,0.1015,0.0993,0.1011,0.1038,0.1021,0.1041,0.1042,0.1041,0.1043,0.1047,0.1038,0.1039,0.1057,0.1057,0.1057,0.1057,0,0,0,0,0,0,0,0.0953,0.0956,0.0979,0.0987,0.099,0.0998,0.1002,0.0997,0.1026,0.1023,0.1026,0.1029,0.1043,0.1047,0.1047,0.1039,0.1057,0.1057,0.1057,0.1056,0.1117,0.1118,0,0,0,0,0,0,0.0948,0.0955,0.0978,0.098,0.0975,0.0998,0.1002,0.1007,0.1026,0.103,0.1028,0.1031,0.1047,0.1048,0.1048,0.1106,0.1057,0.1056,0.1056,0.1115,0.1117,0.1119,0,0,0,0,0,0,0.0947,0.095,0.0977,0.0968,0.0972,0.0997,0.1002,0.1007,0.1034,0.103,0.1034,0.1053,0.1048,0.1048,0.108,0.1103,0.1056,0.1056,0.1113,0.1116,0.1118,0.1169,0,0,0,0,0,0,0.0946,0.095,0.0962,0.0967,0.0972,0.1002,0.1001,0.1007,0.1033,0.1037,0.1052,0.1053,0.1048,0.1081,0.108,0.1102,0.1056,0.1111,0.1114,0.1117,0.1165,0.1173,0.1179,0,0,0,0,0,0.0945,0.0951,0.0963,0.0966,0.0985,0.1002,0.1006,0.1027,0.1033,0.1054,0.1071,0.1054,0.1101,0.1082,0.1081,0.1103,0.1109,0.1113,0.1117,0.1161,0.1171,0.1179,0,0,0,0,0,0,0.0945,0.0956,0.0969,0.0979,0.1002,0.101,0.1029,0.1038,0.1066,0.1078,0.1071,0.1075,0.1111,0.1103,0.1083,0.1133,0.1103,0.1107,0.1138,0.1146,0.1154,0.1162,0.1056,0,0,0,0,0,0.095,0.0963,0.0976,0.0992,0.1003,0.102,0.1033,0.1049,0.1067,0.1082,0.1094,0.1109,0.1121,0.1132,0.1142,0.1164,0.1167,0.1181,0.1189,0.1195,0.1203,0.1241,0.1252,0.1132,0.1132,0.1132,0,0,0.0955,0.0964,0.0973,0.0994,0.1013,0.1033,0.1032,0.1062,0.1085,0.1076,0.1123,0.1133,0.1133,0.1167,0.1182,0.1167,0.1231,0.12,0.1205,0.121,0.1246,0.1258,0.1268,0.1134,0.1134,0.1133,0,0,0.0967,0.0983,0.0998,0.102,0.1052,0.1059,0.1072,0.1099,0.1123,0.1162,0.1165,0.1197,0.1214,0.1226,0.1228,0.128,0.1267,0.1285,0.1327,0.1364,0.1374,0.1382,0.1399,0.1408,0.1289,0.1289,0.1289,0,0.0976,0.0996,0.1008,0.1033,0.1055,0.1072,0.1099,0.1119,0.1158,0.1186,0.1189,0.1243,0.1241,0.1277,0.1301,0.1295,0.1311,0.1289,0.1373,0.1381,0.139,0.1404,0.1414,0.1292,0.1292,0.1291,0.1291,0,0.0998,0.1024,0.1038,0.1072,0.1097,0.1126,0.1152,0.1188,0.1215,0.124,0.13,0.1312,0.1347,0.135,0.1339,0.1398,0.1388,0.1375,0.1347,0.1405,0.1416,0.1426,0.1296,0.1295,0.1294,0.1294,0,0,0.0988,0.1042,0.105,0.1077,0.1124,0.1142,0.1189,0.1235,0.1274,0.132,0.1378,0.1404,0.1427,0.1433,0.1431,0.146,0.1524,0.1449,0.1449,0.1459,0.1602,0.1516,0.1517,0.1532,0.1534,0.1536,0.1585,0,0.1006,0.1053,0.1077,0.1127,0.1153,0.1192,0.1235,0.1285,0.1326,0.1387,0.1419,0.1473,0.1452,0.1483,0.151,0.1528,0.1553,0.1511,0.155,0.1551,0.1462,0.1527,0.1542,0.1592,0.1594,0.1596,0.1597,0,0.1016,0.1047,0.1101,0.1162,0.1179,0.1215,0.129,0.1335,0.1415,0.1459,0.1519,0.1546,0.1607,0.1579,0.164,0.1619,0.1619,0.162,0.1622,0.1531,0.1483,0.1525,0.1614,0.1613,0.1611,0.161,0.1609,0,0.0993,0.1058,0.1104,0.1127,0.12,0.1242,0.1287,0.1366,0.1413,0.1518,0.1563,0.1635,0.1688,0.1708,0.1711,0.1694,0.1764,0.1737,0.1653,0.1646,0.1684,0.1674,0.1777,0.1777,0.1776,0.1776,0.1776,0,0.0987,0.1022,0.1103,0.1124,0.1189,0.1249,0.1326,0.1382,0.1473,0.1532,0.1606,0.1647,0.1728,0.1765,0.1751,0.1735,0.18,0.1674,0.1662,0.1703,0.1695,0.169,0.168,0.1778,0.1778,0.1777,0.1777,0,0.0951,0.1006,0.1057,0.1144,0.1179,0.123,0.1337,0.1384,0.1481,0.156,0.1601,0.1696,0.1757,0.1795,0.1843,0.1783,0.1774,0.1742,0.1788,0.1775,0.1619,0.1611,0.1668,0.1666,0.1664,0.1662,0.1661,0,0.0933,0.096,0.106,0.1097,0.1141,0.1227,0.1281,0.1385,0.1423,0.1559,0.1577,0.1689,0.1738,0.1727,0.1782,0.1778,0.1744,0.1727,0.167,0.1631,0.1613,0.1608,0.1603,0.1657,0.1657,0.1656,0.1656,0,0.0892,0.0941,0.098,0.1057,0.1119,0.118,0.1255,0.1273,0.139,0.1493,0.1527,0.1566,0.1636,0.1674,0.1695,0.1673,0.1738,0.1705,0.1708,0.1655,0.1618,0.1601,0.1599,0.1648,0.1649,0.165,0.1651,0,0.0859,0.088,0.0941,0.1001,0.1074,0.1099,0.1152,0.1195,0.1249,0.1386,0.1399,0.1507,0.162,0.1619,0.1623,0.1625,0.1596,0.1528,0.154,0.1549,0.1488,0.1423,0.1397,0,0,0,0,0,0.082,0.0836,0.0882,0.0934,0.0997,0.1038,0.1116,0.1165,0.1274,0.1266,0.1327,0.1381,0.1432,0.148,0.1459,0.1574,0.1599,0.1541,0.1526,0.1609,0.1617,0.1557,0,0,0,0,0,0,0.0792,0.0831,0.0852,0.0861,0.0884,0.0937,0.0981,0.1053,0.1043,0.1167,0.1194,0.1304,0.1363,0.1436,0.1436,0.1454,0.1416,0.1617,0.1613,0.1604,0.1611,0.1618,0.156,0,0,0,0,0]},{"header":{"parameterUnit":"m.s-1","parameterCategory":2,"la1":30.2991,"la2":30.254,"lo1":-89.0895,"lo2":-89.0444,"dy":0.0017,"dx":0.0017,"nx":28,"ny":28,"refTime":"2024-03-12T03:00:00:Z","depth":"4","parameterNumber":3,"parameterNumberName":"V-component_of_CURRENTS"},"data":[0,0,0,0,0,0,0,0,0,0,0,0,0,0,0,0,0,0,0,0,0,0,0,0,0,0,0,0,0,0,0,0,0,0,0,0,0,0,0,0,0,0,0,0,0,0,0,0,0,0,0,0,0,0,0,0,0,0,-0.0039,-0.0039,0,-0.007,-0.007,-0.0071,-0.0103,-0.0103,-0.0103,-0.0103,-0.017,-0.0172,-0.0173,0,0,0,0,0,0,0,0,0,0,0,0,0,-0.0045,-0.0045,-0.0039,-0.0039,-0.0039,-0.007,-0.007,-0.0071,-0.0102,-0.0103,-0.0103,-0.0103,-0.017,-0.0172,-0.0174,0,0,0,0,0,0,0,0,0,0,0,0,0,-0.0058,-0.0045,-0.0039,-0.0057,-0.0059,-0.0069,-0.007,-0.0071,-0.0102,-0.0103,-0.0103,-0.0103,-0.0169,-0.0171,-0.0174,-0.0182,0,0,-0.0181,-0.0182,0,0,0,0,0,0,0,0,-0.0057,-0.0058,-0.0054,-0.0056,-0.0058,-0.0081,-0.0097,-0.0109,-0.0102,-0.0088,-0.0103,-0.0104,-0.0142,-0.0147,-0.0154,-0.0185,-0.0188,-0.0181,-0.0183,-0.0184,-0.0184,0,0,0,0,0,0,0,-0.0056,-0.0057,-0.0053,-0.0054,-0.0056,-0.0076,-0.0078,-0.01,-0.0115,-0.009,-0.0091,-0.0091,-0.0144,-0.0152,-0.0156,-0.0189,-0.0181,-0.0183,-0.0185,-0.0186,-0.0211,-0.021,0,0,0,0,0,0,-0.0045,-0.0056,-0.0052,-0.0054,-0.0056,-0.0076,-0.0078,-0.0075,-0.0114,-0.012,-0.0091,-0.0092,-0.0148,-0.0153,-0.0159,-0.0157,-0.0184,-0.0186,-0.0187,-0.0212,-0.0211,-0.021,0,0,0,0,0,0,-0.0045,-0.0045,-0.0051,-0.0054,-0.0056,-0.0075,-0.0071,-0.0075,-0.0085,-0.0114,-0.0121,-0.0096,-0.0148,-0.0155,-0.0175,-0.016,-0.0187,-0.0189,-0.0213,-0.0211,-0.021,-0.0162,0,0,0,0,0,0,-0.0045,-0.0044,-0.0043,-0.0053,-0.0055,-0.0057,-0.0071,-0.0075,-0.0083,-0.0085,-0.0121,-0.0127,-0.0149,-0.0171,-0.0177,-0.0164,-0.0191,-0.0213,-0.0212,-0.0211,-0.0164,-0.0159,-0.0155,0,0,0,0,0,-0.0046,-0.0037,-0.0043,-0.0043,-0.0051,-0.0057,-0.006,-0.0076,-0.0083,-0.0087,-0.0107,-0.0126,-0.0166,-0.0173,-0.018,-0.0167,-0.0214,-0.0212,-0.0211,-0.0167,-0.016,-0.0155,0,0,0,0,0,0,-0.0041,-0.004,-0.0046,-0.0039,-0.0048,-0.0061,-0.0065,-0.0074,-0.0093,-0.0096,-0.0125,-0.0132,-0.0144,-0.0161,-0.0167,-0.0169,-0.019,-0.019,-0.0154,-0.0148,-0.0144,-0.014,-0.0193,0,0,0,0,0,-0.0038,-0.0032,-0.0038,-0.0034,-0.0036,-0.0051,-0.0056,-0.0064,-0.0079,-0.0088,-0.011,-0.0129,-0.0141,-0.015,-0.0169,-0.0173,-0.0209,-0.0167,-0.0162,-0.0158,-0.0159,-0.0195,-0.0194,-0.0204,-0.0204,-0.0204,0,0,-0.0036,-0.0034,-0.0032,-0.0033,-0.0042,-0.0039,-0.0055,-0.0059,-0.0056,-0.0092,-0.01,-0.012,-0.014,-0.0144,-0.0149,-0.0157,-0.0175,-0.0156,-0.0152,-0.0155,-0.0193,-0.0192,-0.0191,-0.0203,-0.0203,-0.0204,0,0,-0.0027,-0.0027,-0.0021,-0.0023,-0.0028,-0.0032,-0.0031,-0.0043,-0.0049,-0.0056,-0.0076,-0.0086,-0.0111,-0.0117,-0.0124,-0.0103,-0.0152,-0.0107,-0.0077,-0.0112,-0.0111,-0.0112,-0.0166,-0.0171,-0.0099,-0.0099,-0.0099,0,-0.0027,-0.0016,-0.0021,-0.0016,-0.0013,-0.0026,-0.0018,-0.0022,-0.0039,-0.0042,-0.0053,-0.008,-0.0095,-0.0093,-0.0081,-0.0092,-0.0132,-0.0097,-0.0106,-0.0107,-0.0108,-0.0164,-0.0171,-0.0097,-0.0097,-0.0097,-0.0097,0,-0.0014,-0.0006,-0.0001,0.0006,0.0006,0.0011,0.001,0.001,0.0004,-0.0005,-0.0013,-0.0034,-0.0051,-0.0047,-0.0057,-0.0062,-0.0095,-0.0101,-0.0123,-0.0104,-0.0164,-0.0172,-0.0093,-0.0094,-0.0095,-0.0095,0,0,-0.0008,0.0006,0.0007,0.0015,0.0019,0.0023,0.0037,0.0041,0.0045,0.0032,0.0025,0.0024,0.0003,-0.0005,-0.0019,-0.0036,-0.0072,-0.0066,-0.0069,-0.0124,-0.0172,-0.0147,-0.0154,-0.0085,-0.0086,-0.0087,-0.0215,0,0.0003,0.0023,0.0026,0.0045,0.0057,0.0058,0.0071,0.0073,0.0065,0.0053,0.004,0.0023,0.0022,0.001,-0.0004,-0.0064,-0.0089,-0.0038,-0.0179,-0.0183,-0.0165,-0.016,-0.0089,-0.0221,-0.0223,-0.0224,-0.0225,0,0.0014,0.0029,0.005,0.0072,0.0077,0.0087,0.0102,0.0109,0.0098,0.0088,0.0072,0.0042,0.0016,0.001,-0.0076,-0.0048,-0.0103,-0.0144,-0.0151,-0.0149,-0.0171,-0.0241,-0.024,-0.0239,-0.0238,-0.0237,-0.0236,0,0.0024,0.0046,0.0067,0.0073,0.0095,0.0107,0.0117,0.0118,0.0122,0.0097,0.0082,0.0043,0.0008,-0.0053,-0.0124,-0.0115,-0.0231,-0.0234,-0.0265,-0.0266,-0.0274,-0.0273,-0.0295,-0.0295,-0.0295,-0.0294,-0.0294,0,0.0038,0.0054,0.0074,0.0085,0.011,0.0118,0.0135,0.014,0.0132,0.0131,0.0093,0.0077,-0.001,-0.0081,-0.0142,-0.0228,-0.0251,-0.0265,-0.0291,-0.0252,-0.0246,-0.0281,-0.0278,-0.0299,-0.0298,-0.0297,-0.0296,0,0.0043,0.0057,0.0081,0.0107,0.0116,0.0131,0.015,0.0156,0.0149,0.014,0.0129,0.0075,-0.0007,-0.0096,-0.0212,-0.0253,-0.0335,-0.0358,-0.0327,-0.0349,-0.0352,-0.0344,-0.0423,-0.0423,-0.0423,-0.0423,-0.0423,0,0.0046,0.006,0.0092,0.0103,0.0114,0.0137,0.0151,0.0164,0.0168,0.0151,0.0141,0.0064,0.0024,-0.012,-0.0214,-0.0349,-0.0347,-0.0414,-0.0358,-0.0344,-0.0362,-0.0355,-0.0347,-0.0423,-0.0423,-0.0423,-0.0423,0,0.0044,0.0055,0.0071,0.0097,0.0115,0.0143,0.0162,0.0174,0.0185,0.0175,0.0169,0.0104,0.0009,-0.0095,-0.0205,-0.0292,-0.0383,-0.0415,-0.0415,-0.0362,-0.0345,-0.0361,-0.0354,-0.0423,-0.0423,-0.0423,-0.0423,0,0.0028,0.0037,0.0053,0.0078,0.0103,0.0134,0.0158,0.0178,0.0193,0.0192,0.019,0.0111,0.0061,-0.0068,-0.0163,-0.0252,-0.0267,-0.0293,-0.03,-0.0302,-0.021,-0.0167,-0.0214,0,0,0,0,0,0.0002,0.0004,0.0028,0.0057,0.0089,0.0113,0.015,0.0175,0.0195,0.0206,0.0209,0.0143,0.0023,-0.0034,-0.0116,-0.0189,-0.0312,-0.0292,-0.0352,-0.0423,-0.0423,-0.0331,0,0,0,0,0,0,-0.0027,-0.0014,0.0012,0.0034,0.006,0.0098,0.0133,0.0159,0.0176,0.0193,0.014,0.0121,0.0004,0.0077,-0.0117,-0.0148,-0.0198,-0.0348,-0.035,-0.0423,-0.0423,-0.0423,-0.0329,0,0,0,0,0]}]]